Weather History for KPBG - January, 2014

Change the Weather History Date:

Monday, January 20, 2014

  Actual Average Record
Temperature  
Mean Temperature 16 °F 16 °F  
Max Temperature 33 °F 27 °F 46 °F (1973)
Min Temperature -1 °F 5 °F -14 °F (1970)
Degree Days  
Heating Degree Days 49 49  
Month to date heating degree days 877 955  
Since 1 July heating degree days 3929 3841  
Cooling Degree Days 0 0  
Month to date cooling degree days 0  
Year to date cooling degree days 0  
Moisture  
Dew Point 7 °F    
Average Humidity 72    
Maximum Humidity 88    
Minimum Humidity 56    
Precipitation  
Precipitation T in - 0.66 in (1986)
Month to date precipitation 0.63  
Year to date precipitation 0.63  
Sea Level Pressure  
Sea Level Pressure 29.64 in    
Wind  
Wind Speed 10 mph (North)    
Max Wind Speed 20 mph    
Max Gust Speed 22 mph    
Visibility 5 miles    
Events Snow    
T = Trace of Precipitation, MM = Missing Value Source: NWS Daily Summary

Daily Weather History Graph

Daily Weather History Graph

Search for Another Location

Airport or City:

Trip Planner

Search our weather history database for the weather conditions in past years. The results will help you decide how hot, cold, wet, or windy it might be!

Date:

Astronomy

Jan. 20, 2014 Rise Set
Actual Time 7:24 AM EST 4:46 PM EST
Civil Twilight 6:52 AM EST 5:18 PM EST
Nautical Twilight 6:16 AM EST 5:53 PM EST
Astronomical Twilight 5:41 AM EST 6:28 PM EST
Moon 9:31 PM EST (1/20) 9:10 AM EST (1/20)
Length of Visible Light 10h 26m
Length of Day
9h 21m
Waning Gibbous, 83% of the Moon is Illuminated
Jan 20
Waning Gibbous
Jan 24
Last Quarter
Jan 30
New
Feb 6
First Quarter
Feb 14
Full

Hourly Weather History & Observations

Time (EST) Temp. Windchill Dew Point Humidity Pressure Visibility Wind Dir Wind Speed Gust Speed Precip Events Conditions
12:53 AM 33.1 °F 26.9 °F 21.0 °F 61% 29.42 in 10.0 mi WSW 6.9 mph - N/A   Overcast
1:53 AM 32.0 °F 27.5 °F 21.0 °F 64% 29.43 in 10.0 mi Variable 4.6 mph - 0.00 in   Overcast
2:53 AM 24.1 °F 15.2 °F 19.9 °F 84% 29.46 in 7.0 mi NNE 8.1 mph - 0.00 in Snow Light Snow
3:53 AM 21.0 °F 10.6 °F 17.1 °F 85% 29.48 in 5.0 mi NNE 9.2 mph - 0.00 in Snow Light Snow
4:01 AM 21.0 °F 8.6 °F 16.0 °F 81% 29.47 in 5.0 mi NNE 12.7 mph - 0.00 in Snow Light Snow
4:21 AM 19.9 °F 7.3 °F 16.0 °F 85% 29.48 in 2.0 mi North 12.7 mph - 0.00 in Snow Light Snow
4:28 AM 19.9 °F 7.3 °F 15.1 °F 81% 29.48 in 1.8 mi North 12.7 mph - 0.00 in Snow Light Snow
4:53 AM 19.9 °F 8.6 °F 15.1 °F 81% 29.50 in 2.0 mi North 10.4 mph - 0.00 in Snow Light Snow
4:57 AM 19.9 °F 7.9 °F 15.1 °F 81% 29.49 in 3.0 mi North 11.5 mph - 0.00 in Snow Light Snow
5:22 AM 19.0 °F 8.2 °F 14.0 °F 81% 29.50 in 2.0 mi NNE 9.2 mph - 0.00 in Snow Light Snow
5:36 AM 19.0 °F 5.0 °F 12.9 °F 77% 29.51 in 2.0 mi North 15.0 mph - 0.00 in Snow Light Snow
5:53 AM 18.0 °F 4.2 °F 12.9 °F 81% 29.53 in 3.0 mi North 13.8 mph - 0.00 in Snow Light Snow
6:21 AM 17.1 °F 3.0 °F 12.0 °F 81% 29.53 in 2.0 mi NNE 13.8 mph - 0.00 in Snow Light Snow
6:37 AM 17.1 °F 3.6 °F 12.0 °F 81% 29.54 in 4.0 mi North 12.7 mph - 0.00 in Snow Light Snow
6:53 AM 17.1 °F 3.0 °F 10.9 °F 77% 29.57 in 5.0 mi NNE 13.8 mph - 0.00 in Snow Light Snow
7:13 AM 16.0 °F 3.6 °F 10.9 °F 81% 29.56 in 2.0 mi NNE 10.4 mph - 0.00 in Snow Light Snow
7:21 AM 16.0 °F 3.6 °F 12.0 °F 84% 29.56 in 1.5 mi NNE 10.4 mph - 0.00 in Snow Light Snow
7:53 AM 16.0 °F 2.9 °F 12.0 °F 84% 29.59 in 1.2 mi NNE 11.5 mph - 0.00 in Snow Light Snow
8:04 AM 15.1 °F -0.6 °F 10.9 °F 84% 29.57 in 0.8 mi North 16.1 mph - 0.00 in Snow Light Snow
8:14 AM 15.1 °F 0.5 °F 10.0 °F 80% 29.57 in 1.0 mi North 13.8 mph - 0.00 in Snow Light Snow
8:43 AM 14.0 °F 2.0 °F 9.0 °F 80% 29.58 in 2.5 mi NNE 9.2 mph - 0.00 in Snow Light Snow
8:47 AM 14.0 °F -0.2 °F 8.6 °F 79% 29.59 in 3.0 mi NNE 12.7 mph - 0.00 in Snow Light Snow
8:53 AM 14.0 °F -0.2 °F 9.0 °F 80% 29.60 in 3.0 mi NNE 12.7 mph - 0.00 in Snow Light Snow
9:53 AM 14.0 °F 0.5 °F 8.1 °F 77% 29.64 in 5.0 mi North 11.5 mph - 0.00 in Snow Light Snow
10:30 AM 14.0 °F 0.5 °F 7.0 °F 74% 29.63 in 10.0 mi NNE 11.5 mph - 0.00 in   Overcast
10:53 AM 14.0 °F -1.4 °F 7.0 °F 74% 29.64 in 6.0 mi NNE 15.0 mph - 0.00 in Snow Light Snow
11:09 AM 14.0 °F -3.0 °F 7.0 °F 74% 29.61 in 5.0 mi North 18.4 mph - 0.00 in Snow Light Snow
11:53 AM 12.9 °F -3.4 °F 7.0 °F 77% 29.62 in 5.0 mi NNE 16.1 mph - 0.00 in Snow Light Snow
12:53 PM 12.0 °F -2.7 °F 6.1 °F 77% 29.62 in 2.5 mi NNE 12.7 mph - 0.00 in Snow Light Snow
1:21 PM 10.9 °F -3.4 °F 5.0 °F 77% 29.62 in 3.0 mi NNE 11.5 mph - 0.00 in Snow Light Snow
1:49 PM 10.4 °F -4.1 °F 3.2 °F 73% 29.64 in 2.0 mi NNE 11.5 mph - 0.00 in Snow Light Snow
1:53 PM 10.9 °F -4.1 °F 5.0 °F 77% 29.66 in 1.5 mi NNE 12.7 mph - 0.00 in Snow Light Snow
2:08 PM 10.9 °F -4.7 °F 3.9 °F 73% 29.65 in 2.0 mi NNE 13.8 mph - 0.00 in Snow Light Snow
2:19 PM 10.9 °F -4.7 °F 3.9 °F 73% 29.65 in 2.5 mi North 13.8 mph - 0.00 in Snow Light Snow
2:30 PM 10.9 °F -4.7 °F 3.9 °F 73% 29.66 in 1.8 mi North 13.8 mph - 0.00 in Snow Light Snow
2:53 PM 10.9 °F -4.7 °F 3.9 °F 73% 29.69 in 1.5 mi North 13.8 mph - 0.00 in Snow Light Snow
3:01 PM 10.9 °F -5.4 °F 3.9 °F 73% 29.67 in 3.0 mi North 15.0 mph - 0.00 in Snow Light Snow
3:38 PM 10.9 °F -4.7 °F 1.0 °F 64% 29.71 in 10.0 mi North 13.8 mph - 0.00 in   Mostly Cloudy
3:53 PM 10.9 °F -5.4 °F -0.0 °F 61% 29.74 in 10.0 mi NNW 15.0 mph - 0.00 in   Overcast
4:53 PM 8.1 °F -7.0 °F -2.9 °F 61% 29.80 in 10.0 mi North 11.5 mph - N/A   Clear
5:53 PM 7.0 °F -6.6 °F -5.1 °F 58% 29.85 in 10.0 mi NW 9.2 mph - N/A   Partly Cloudy
6:53 PM 6.1 °F -6.8 °F -5.1 °F 60% 29.90 in 10.0 mi WNW 8.1 mph - N/A   Overcast
7:53 PM 3.9 °F -8.2 °F -8.0 °F 58% 29.93 in 10.0 mi WNW 6.9 mph - N/A   Clear
8:53 PM -0.0 °F -7.9 °F -9.0 °F 66% 29.96 in 10.0 mi SSW 3.5 mph - N/A   Clear
9:53 PM -0.0 °F -9.9 °F -9.0 °F 66% 29.97 in 10.0 mi SSW 4.6 mph - N/A   Clear
10:53 PM 1.0 °F - -9.9 °F 60% 30.00 in 10.0 mi Calm Calm - N/A   Clear
11:53 PM -0.9 °F -8.9 °F -11.0 °F 62% 30.04 in 10.0 mi WSW 3.5 mph - N/A   Clear